Location: Condor
(52.3263°N, 114.5541°W)
Time: 20:55:41
(UTC+00:00)

Oscar 19 - Pass Details

Date: 13 December 2023
Orbit: 771 x 789 km, 98.9° (Epoch: 04 March)

Event Time Altitude Azimuth Distance (km) Brightness Sun altitude
Rises 00:34:31 0° 205° (SSW) 3,236 14.7 -9.8°
Reaches altitude 10° 00:37:23 10° 222° (SW) 2,316 14.3 -10.2°
Maximum altitude 00:41:09 21° 270° (W) 1,709 13.4 -10.8°
Drops below altitude 10° 00:44:57 10° 318° (NW) 2,335 13.4 -11.3°
Sets 00:47:52 0° 335° (NNW) 3,271 13.9 -11.7°
